Probability
52 58 58 55 58 55 55 48 48 48 48 42 32 29 23 32 35 35 35 35 35 35 35 35 35 32 29 32 32 29 23 23 23 19 19 19 13 13 16 19 16 10 10
45 55 52 52 52 52 45 48 48 48 42 45 39 39 32 32 26 26 29 29 26 26 23 29 29 29 29 29 29 26 19 19 19 16 13 10 13 16 6 10 13 10 10
48 48 55 48 48 45 42 32 42 45 39 39 35 26 26 23 23 23 26 23 23 23 26 26 23 26 26 26 26 26 23 13 13 19 13 10 6 6 10 10 6 6 3
48 48 52 52 48 45 39 42 35 32 35 32 29 23 23 23 23 23 23 19 19 19 19 19 16 16 19 23 19 23 23 16 13 16 23 16 16 6 3 6 3 3 0
48 55 48 52 45 39 35 35 35 35 32 32 32 23 16 23 26 23 19 19 19 16 13 10 10 16 13 13 23 16 19 13 13 13 19 16 10 6 3 3 3 3 3
55 52 48 52 45 32 32 35 32 29 29 26 23 19 19 19 19 16 19 19 16 13 10 10 6 6 16 16 16 16 13 16 6 6 13 10 13 6 3 3 3 3 3
48 52 48 39 35 32 26 26 23 23 23 19 19 19 19 19 19 19 23 19 16 16 13 10 6 6 10 13 16 13 13 10 10 6 6 10 13 13 3 0 3 3 0
48 52 42 42 35 26 32 23 23 16 16 19 19 16 19 19 19 19 19 16 16 13 13 10 10 10 10 10 13 10 6 3 6 0 6 3 6 6 0 0 0 0 0
35 39 42 42 39 32 35 23 23 16 16 16 13 10 10 6 6 10 10 10 6 10 10 10 6 6 10 10 13 10 6 6 3 3 3 6 0 3 0 3 0 0 0
32 45 42 32 29 26 26 26 19 10 10 13 13 6 6 6 6 6 13 10 6 6 6 6 6 6 6 6 10 6 6 6 3 3 3 6 3 0 0 0 0 0 0
35 42 35 32 23 19 23 19 13 10 10 10 10 13 10 10 6 10 6 6 3 3 0 3 3 3 3 3 3 0 0 0 0 0 0 0 0 0 0 0 0 0 0
35 35 29 26 23 19 16 10 6 6 10 13 13 10 10 6 6 3 0 0 0 0 0 3 3 3 3 3 3 3 0 0 0 0 0 0 0 0 0 3 0 0 0
32 26 32 19 16 13 10 10 10 10 6 6 10 6 6 6 3 0 0 0 0 0 0 0 3 0 0 0 3 3 0 0 0 0 0 0 0 0 0 0 0 0 0
26 23 23 23 13 13 3 3 3 6 6 3 0 3 3 3 0 0 0 0 0 0 0 0 0 0 0 0 0 0 0 0 0 0 0 0 0 0 0 0 0 0 0
23 26 19 19 10 6 3 3 3 6 6 3 0 3 3 0 0 0 0 0 0 0 0 0 0 0 0 0 0 0 0 0 0 0 0 0 0 0 0 0 0 0 0
16 19 16 16 10 6 3 3 3 3 6 3 3 3 3 0 0 0 0 0 0 0 0 0 0 0 0 0 0 0 0 0 0 0 0 0 0 0 0 0 0 0 0
16 19 16 16 13 6 6 3 3 3 3 3 6 0 0 0 0 0 0 0 0 0 0 0 0 0 0 0 0 0 0 0 0 0 0 0 0 0 0 0 0 0 0
16 19 16 13 13 6 6 3 3 3 6 3 6 3 0 0 0 0 0 0 0 0 0 0 3 0 0 0 0 0 0 0 0 3 0 0 0 0 0 0 0 0 0
26 19 19 10 10 6 6 3 3 3 0 0 0 0 0 0 0 0 0 3 0 0 0 0 0 0 0 0 0 0 0 0 0 0 0 0 0 0 0 0 0 0 0
26 19 16 10 6 6 6 3 3 3 0 0 0 0 0 0 0 3 3 3 3 0 0 0 0 0 0 0 0 0 0 0 0 0 0 0 0 0 0 0 0 0 0
26 13 10 10 10 6 10 3 3 3 0 0 0 0 0 0 0 3 6 3 3 0 0 0 3 3 0 0 0 0 0 0 0 0 0 0 0 0 0 0 0 0 0
13 10 13 10 10 6 3 3 3 3 0 0 0 0 0 0 0 3 3 3 3 6 0 0 0 0 3 0 0 0 0 0 0 0 0 0 0 0 0 0 0 0 0
13 13 13 13 13 10 3 3 3 3 0 0 0 0 0 0 0 3 0 0 0 0 0 0 0 0 3 3 0 0 0 0 0 0 0 0 0 0 0 0 0 0 0
16 13 10 10 10 6 3 3 3 3 0 0 0 0 0 0 0 3 0 0 0 0 0 0 0 0 0 0 0 0 0 0 0 0 0 0 0 0 0 0 0 0 0
16 16 13 10 6 6 6 3 3 3 0 0 0 0 0 0 0 0 0 0 0 0 0 0 0 0 0 0 0 0 0 0 0 0 0 0 0 3 0 0 0 3 0
19 13 13 6 6 6 6 3 3 3 3 0 0 0 0 0 0 0 0 0 0 0 0 0 0 0 0 0 0 0 0 0 0 0 0 0 0 0 0 0 0 0 0
Height
5860 5858 5857 5856 5855 5853 5851 5850 5848 5846 5844 5843 5840 5838 5836 5834 5832 5830 5828 5826 5824 5822 5820 5818 5815 5813 5812 5810 5808 5806 5805 5804 5803 5802 5801 5801 5800 5800 5800 5799 5800 5799 5800
5856 5854 5853 5851 5850 5848 5847 5845 5843 5841 5839 5837 5835 5833 5831 5829 5827 5824 5822 5820 5818 5815 5813 5811 5808 5806 5804 5802 5800 5799 5797 5796 5795 5794 5793 5793 5793 5792 5792 5792 5792 5792 5793
5850 5849 5848 5847 5845 5843 5842 5840 5838 5836 5834 5832 5829 5827 5825 5823 5821 5818 5816 5814 5811 5808 5806 5803 5800 5798 5796 5794 5793 5791 5789 5788 5787 5786 5785 5785 5785 5785 5785 5784 5784 5785 5785
5845 5843 5842 5841 5840 5838 5837 5835 5832 5830 5828 5825 5823 5821 5819 5817 5814 5812 5809 5807 5804 5801 5799 5796 5793 5790 5788 5786 5784 5783 5781 5780 5779 5778 5777 5777 5777 5777 5777 5777 5776 5777 5777
5840 5838 5837 5836 5834 5833 5831 5829 5827 5825 5823 5820 5818 5815 5812 5810 5808 5805 5802 5799 5797 5794 5791 5788 5785 5783 5780 5778 5776 5775 5773 5772 5771 5771 5770 5770 5769 5769 5769 5769 5769 5769 5770
5836 5834 5832 5830 5829 5827 5825 5823 5821 5820 5817 5815 5812 5809 5806 5803 5801 5798 5795 5793 5790 5787 5784 5781 5778 5775 5773 5770 5768 5767 5766 5765 5764 5763 5763 5762 5762 5761 5761 5761 5761 5762 5762
5832 5829 5827 5825 5823 5821 5820 5818 5816 5814 5811 5809 5806 5803 5800 5797 5795 5792 5789 5786 5783 5780 5777 5774 5771 5769 5766 5764 5762 5760 5759 5758 5757 5756 5755 5755 5754 5754 5753 5753 5753 5754 5755
5827 5825 5822 5819 5817 5815 5814 5812 5810 5808 5805 5803 5800 5797 5794 5791 5789 5786 5783 5780 5777 5774 5771 5768 5766 5763 5760 5758 5756 5755 5753 5752 5751 5750 5749 5748 5747 5747 5746 5746 5746 5747 5748
5823 5820 5817 5814 5812 5809 5808 5806 5804 5802 5799 5797 5794 5791 5788 5785 5782 5780 5777 5774 5771 5768 5765 5763 5760 5757 5755 5753 5751 5750 5748 5747 5745 5744 5743 5742 5741 5741 5740 5740 5740 5741 5742
5818 5815 5812 5809 5807 5804 5802 5800 5797 5795 5793 5791 5788 5785 5782 5779 5776 5774 5771 5768 5765 5762 5760 5757 5755 5752 5750 5748 5746 5745 5743 5742 5741 5739 5738 5737 5736 5735 5735 5734 5734 5734 5735
5812 5810 5807 5804 5802 5799 5797 5794 5792 5789 5787 5784 5782 5779 5776 5773 5770 5767 5765 5762 5759 5757 5754 5752 5749 5747 5745 5743 5742 5740 5739 5738 5736 5735 5734 5733 5731 5731 5730 5729 5729 5729 5729
5807 5804 5801 5799 5796 5794 5791 5788 5786 5783 5781 5778 5776 5773 5770 5768 5765 5762 5760 5757 5755 5752 5750 5747 5745 5743 5741 5739 5737 5736 5735 5733 5732 5731 5730 5728 5727 5726 5725 5724 5724 5724 5724
5802 5799 5796 5793 5791 5788 5786 5783 5781 5778 5776 5773 5771 5768 5766 5763 5760 5757 5755 5753 5750 5748 5745 5743 5741 5739 5737 5735 5733 5732 5730 5729 5727 5726 5725 5724 5723 5722 5721 5721 5720 5720 5719
5797 5794 5791 5788 5786 5783 5781 5778 5776 5774 5771 5769 5767 5764 5762 5759 5756 5753 5751 5748 5746 5744 5742 5740 5738 5736 5734 5732 5730 5729 5727 5725 5724 5723 5722 5721 5720 5719 5718 5717 5717 5716 5716
5792 5789 5786 5784 5781 5779 5776 5774 5772 5769 5767 5765 5763 5761 5758 5756 5753 5750 5747 5745 5743 5742 5740 5737 5735 5733 5732 5730 5728 5725 5723 5722 5721 5720 5718 5718 5717 5716 5715 5715 5714 5713 5713
5788 5785 5782 5780 5777 5775 5773 5771 5769 5766 5765 5763 5761 5758 5756 5753 5750 5747 5745 5742 5741 5739 5737 5735 5733 5731 5729 5727 5725 5723 5720 5719 5718 5717 5716 5715 5715 5714 5713 5712 5712 5711 5710
5783 5781 5778 5776 5774 5772 5770 5768 5766 5764 5762 5760 5758 5756 5753 5750 5748 5746 5743 5741 5739 5737 5735 5733 5731 5729 5727 5725 5723 5720 5718 5717 5715 5714 5714 5713 5712 5712 5711 5711 5710 5709 5709
5780 5777 5775 5773 5770 5769 5767 5765 5763 5762 5760 5758 5756 5754 5752 5749 5747 5745 5742 5740 5738 5735 5733 5731 5730 5728 5726 5723 5721 5719 5717 5715 5714 5713 5712 5711 5711 5710 5710 5709 5709 5708 5707
5776 5774 5772 5770 5768 5766 5764 5763 5761 5759 5758 5756 5754 5752 5750 5748 5746 5743 5741 5739 5737 5734 5732 5730 5729 5727 5724 5722 5719 5717 5715 5714 5713 5711 5710 5710 5710 5709 5708 5708 5707 5707 5706
5773 5771 5769 5767 5765 5764 5762 5760 5759 5757 5756 5754 5752 5751 5749 5747 5745 5743 5740 5738 5736 5734 5732 5730 5728 5725 5723 5721 5718 5716 5714 5713 5712 5710 5709 5709 5708 5708 5707 5706 5706 5705 5705
5770 5768 5766 5765 5763 5762 5760 5758 5757 5755 5754 5753 5751 5749 5748 5746 5744 5742 5740 5738 5735 5733 5731 5729 5727 5724 5722 5720 5717 5715 5714 5712 5711 5710 5709 5708 5707 5706 5705 5705 5704 5704 5704
5767 5766 5764 5763 5761 5760 5758 5757 5755 5754 5752 5751 5750 5748 5747 5745 5743 5741 5739 5737 5735 5733 5731 5729 5726 5724 5721 5719 5717 5715 5713 5712 5710 5709 5708 5707 5706 5705 5704 5703 5703 5702 5702
5766 5764 5763 5761 5760 5758 5757 5756 5754 5753 5751 5750 5749 5747 5746 5744 5742 5741 5739 5737 5735 5732 5730 5728 5726 5724 5721 5719 5716 5715 5713 5711 5710 5709 5707 5706 5705 5704 5703 5702 5701 5700 5700
5764 5763 5761 5760 5758 5757 5756 5755 5753 5752 5750 5749 5748 5747 5745 5744 5742 5740 5738 5736 5734 5732 5730 5728 5726 5723 5721 5719 5717 5715 5713 5712 5710 5709 5707 5705 5704 5703 5702 5701 5700 5699 5698
5762 5761 5760 5759 5757 5756 5755 5754 5752 5751 5750 5749 5748 5746 5745 5743 5742 5740 5738 5736 5734 5732 5730 5728 5725 5723 5721 5719 5717 5714 5713 5711 5710 5708 5706 5705 5703 5702 5701 5700 5699 5698 5697
5761 5760 5759 5758 5757 5756 5755 5753 5752 5751 5749 5748 5747 5746 5744 5743 5741 5740 5738 5736 5734 5732 5730 5728 5725 5723 5721 5719 5716 5714 5712 5710 5709 5707 5705 5704 5702 5701 5699 5698 5697 5696 5695
Wind_Speed
23 24 24 25 25 25 25 25 25 26 27 28 28 28 26 27 27 28 28 29 29 30 31 32 32 32 32 33 33 33 32 31 30 30 29 29 28 28 28 28 28 29 29
24 24 25 25 26 26 26 27 27 27 28 28 28 27 26 27 27 28 29 29 30 31 32 32 32 33 32 32 32 32 32 31 31 30 29 29 29 29 28 28 28 28 29
24 25 26 26 26 26 26 27 27 27 28 28 27 27 27 28 28 29 29 30 31 32 32 33 33 33 32 31 31 32 32 30 30 30 29 29 29 28 28 28 29 29 28
25 26 26 25 26 26 26 27 27 27 28 27 27 28 28 29 29 30 30 31 32 31 31 32 32 32 32 31 31 31 30 29 29 30 30 29 29 29 29 29 29 29 28
26 26 26 25 25 25 25 26 27 27 27 26 27 29 29 29 29 30 30 30 30 30 31 31 31 31 30 30 30 29 28 27 28 28 28 29 29 29 29 28 29 29 29
26 27 27 26 26 26 26 26 26 26 26 26 27 28 29 29 29 29 30 29 29 29 30 30 30 29 28 27 26 26 26 26 26 26 27 27 28 28 28 28 28 28 29
27 27 27 26 26 26 26 26 27 26 26 27 27 28 29 29 29 29 29 28 28 28 28 28 28 27 26 24 24 23 23 24 24 24 25 26 26 26 26 26 26 27 27
27 26 27 26 26 26 26 26 26 26 27 28 28 29 29 29 29 29 28 28 27 27 27 27 26 25 24 23 22 22 22 23 22 23 24 25 25 24 24 23 23 24 24
26 26 26 26 26 26 26 26 26 26 27 28 28 29 29 29 28 28 28 28 27 27 26 25 24 24 23 22 21 21 20 20 20 20 21 22 22 22 22 22 22 23 23
27 26 26 25 25 25 25 26 26 27 27 27 27 28 28 28 28 27 27 27 27 26 25 24 23 23 22 20 20 19 19 19 19 19 19 19 20 20 21 21 21 22 22
27 26 25 25 25 25 26 25 26 26 26 27 27 27 27 27 27 26 26 25 25 24 23 23 22 21 19 19 18 17 17 17 17 17 17 18 18 18 19 19 19 19 19
26 26 25 25 24 25 25 25 25 26 26 26 26 25 25 25 24 24 23 22 21 21 20 19 19 18 17 17 17 17 16 16 17 17 17 17 16 16 16 16 15 16 17
25 25 25 24 24 24 24 23 24 23 23 23 23 22 22 22 22 22 20 19 19 19 18 17 16 16 15 16 16 15 15 15 15 15 15 14 14 14 14 13 12 13 14
24 24 24 23 23 22 22 22 21 21 21 20 20 20 20 20 20 19 18 17 17 16 16 15 14 14 15 15 15 15 15 15 14 14 13 13 13 13 12 11 11 11 12
23 23 22 21 21 20 19 19 19 18 17 17 17 17 17 17 17 16 16 15 14 14 14 13 13 14 14 15 15 15 14 14 13 13 12 12 12 12 11 10 11 11 10
21 21 20 19 18 18 17 17 16 15 15 15 15 15 15 15 14 14 13 13 13 13 13 12 13 13 14 15 15 15 13 13 12 11 11 10 10 10 11 10 9 9 9
20 19 18 18 17 16 15 15 14 13 13 13 13 13 14 13 13 12 12 13 13 13 12 12 12 13 14 14 14 13 13 12 11 10 9 10 10 10 9 9 8 8 8
19 18 17 16 15 14 14 14 13 12 12 12 12 13 13 12 12 13 13 13 13 13 13 12 12 13 14 13 13 13 12 11 10 9 9 9 8 8 8 8 8 8 7
18 17 16 15 14 13 13 12 11 11 11 12 12 12 12 12 13 13 13 12 13 12 11 11 12 13 13 13 13 12 12 11 10 8 8 8 8 8 8 7 7 6 6
16 15 14 13 13 12 12 11 10 10 10 11 11 11 11 12 12 12 12 12 13 12 12 13 13 13 12 13 13 12 11 10 9 9 8 8 7 7 7 8 7 6 6
14 13 12 11 11 11 10 10 10 10 10 10 11 11 11 11 11 11 11 12 12 12 12 13 13 14 13 13 13 12 11 10 9 8 8 8 8 8 8 8 7 8 7
12 11 10 10 10 10 10 10 10 10 10 10 9 10 10 11 11 11 11 12 12 11 11 12 13 13 13 13 11 11 10 10 10 9 8 8 8 8 8 8 8 8 8
10 10 10 10 9 9 9 9 9 9 9 9 9 9 10 10 10 10 11 11 11 11 11 12 12 12 12 12 11 10 10 10 10 9 8 8 8 8 8 8 8 8 8
9 9 9 9 9 9 8 9 8 8 8 8 8 9 9 9 10 10 10 11 11 11 12 12 12 12 12 12 11 11 11 10 10 10 9 9 9 9 9 8 8 8 8
7 8 8 8 8 8 8 8 7 8 8 7 7 8 9 9 9 10 10 10 11 11 12 12 12 12 12 12 12 12 11 11 11 10 10 11 10 9 8 8 8 8 7
6 6 7 7 7 7 7 7 7 7 8 7 7 8 9 9 10 10 10 10 11 11 12 12 12 12 12 12 12 12 12 11 11 11 11 11 10 10 8 8 8 8 8
Wind_Direction
285 287 290 292 294 296 298 297 294 292 293 294 295 294 293 293 294 293 293 294 295 297 296 294 293 290 290 290 289 287 287 286 284 281 279 277 277 276 275 274 270 267 268
287 288 290 290 293 296 296 296 295 293 294 295 295 294 294 295 295 295 295 295 296 297 297 296 295 292 289 289 289 287 286 285 284 282 279 277 276 276 274 272 270 268 265
287 289 290 291 293 294 294 294 294 294 294 294 293 294 295 296 297 296 295 294 295 295 296 295 294 291 290 288 288 288 286 284 283 282 280 279 276 276 275 273 271 268 265
288 290 291 291 292 293 293 293 293 294 296 296 294 295 296 296 297 296 295 296 297 296 296 297 296 293 291 288 287 288 286 283 282 282 281 279 277 276 275 275 272 269 266
290 290 291 291 291 291 292 293 293 295 297 298 297 296 296 298 300 300 300 299 299 299 297 297 297 295 293 290 289 288 286 283 281 280 280 279 278 276 276 273 271 269 267
293 292 291 291 291 290 290 291 292 294 295 297 297 300 301 301 301 302 303 302 302 302 300 300 299 298 296 293 291 289 286 283 281 280 280 280 280 276 275 273 269 266 265
297 297 295 293 291 292 293 290 292 294 295 296 298 301 303 302 302 303 304 304 304 303 302 303 301 301 298 295 293 290 288 286 283 282 282 282 280 278 277 275 269 265 264
299 300 300 295 292 292 293 292 293 294 296 297 298 300 301 301 302 303 303 303 303 303 302 303 302 302 300 298 297 294 290 289 287 285 284 283 281 278 279 277 272 269 266
300 300 299 296 295 295 293 293 294 295 295 295 296 298 301 302 301 302 302 301 302 302 302 302 302 302 301 299 298 296 294 294 294 293 289 286 283 280 280 278 273 270 269
300 299 299 297 297 296 294 295 296 296 295 295 297 299 299 300 300 301 302 300 300 301 300 302 302 302 301 300 298 296 295 296 297 296 293 290 286 283 281 282 278 272 270
299 299 298 297 296 297 297 296 295 296 297 299 300 300 300 300 300 302 301 302 302 302 302 302 302 302 301 300 299 298 296 297 298 298 296 293 290 285 284 284 278 272 270
298 298 299 298 298 297 299 298 296 297 298 300 301 301 302 303 303 304 305 304 304 305 305 304 304 304 303 303 302 300 300 299 299 298 298 297 294 290 287 285 279 274 273
300 299 300 299 298 298 301 301 300 300 300 301 302 302 304 306 308 308 306 305 306 308 308 307 308 308 308 307 307 303 303 302 301 301 300 299 297 294 292 286 282 278 273
302 300 302 302 300 299 300 301 301 302 303 303 303 303 305 307 311 310 308 306 308 312 313 312 311 312 313 311 309 308 306 305 303 305 302 300 298 297 295 291 291 286 278
304 302 303 303 302 301 303 305 304 305 306 308 307 307 310 312 314 315 312 310 310 313 315 315 313 315 317 316 315 313 312 309 306 306 304 303 302 301 294 289 292 291 284
305 304 303 302 303 303 303 307 308 307 309 313 314 315 320 323 322 320 314 312 314 315 317 318 319 320 322 320 321 321 317 313 309 306 304 300 299 301 294 291 288 287 287
307 305 304 303 304 304 306 307 309 309 311 313 317 323 329 331 329 326 325 322 324 325 324 322 322 325 326 324 326 324 322 319 315 308 302 297 295 298 297 291 296 295 292
307 306 304 303 304 305 307 309 309 309 312 317 322 326 328 333 334 331 331 332 331 328 330 329 328 326 326 326 326 327 324 324 321 311 306 304 301 300 300 296 299 301 294
306 305 303 303 304 307 310 311 309 310 312 319 326 327 330 332 334 331 332 334 336 337 336 334 334 332 329 329 331 333 333 330 327 322 316 311 302 301 304 303 298 298 295
306 305 303 301 302 308 312 314 313 313 314 317 322 324 328 332 335 336 336 337 338 339 340 342 340 338 337 337 337 338 338 334 329 324 321 318 309 303 306 308 302 297 297
308 308 307 305 308 313 318 318 317 317 316 316 318 322 327 329 333 336 336 334 336 339 341 342 341 339 340 340 339 339 337 340 337 331 327 322 317 312 312 313 305 298 290
314 314 314 313 313 317 319 320 321 321 320 321 323 327 330 333 334 335 337 339 339 338 339 341 343 344 344 343 343 346 345 343 344 340 335 330 323 318 316 316 312 302 294
314 317 315 315 319 318 319 322 325 326 325 324 327 330 334 336 338 339 342 344 346 346 345 345 347 348 349 349 352 353 353 353 351 349 343 337 330 322 319 316 310 305 300
314 317 319 322 325 324 324 327 329 332 333 331 330 333 338 340 343 344 346 348 349 350 350 349 347 347 348 351 354 354 353 351 349 348 346 341 335 327 319 315 312 306 301
315 321 325 329 331 332 330 334 338 341 342 341 342 340 343 344 347 351 350 351 353 352 351 349 349 349 349 351 352 350 348 346 343 341 341 339 336 333 329 323 317 312 305
319 324 327 332 336 339 343 347 348 349 349 348 347 350 351 354 354 353 353 353 352 351 351 352 351 351 350 350 349 348 347 345 343 341 339 339 337 336 331 328 323 314 307